Cagliari, Italy

11:42 PM CEST on May 22, 2017 (GMT +0200)
Elmas Mil

Weather History for LIEE - November, 2012

Change the Weather History Date:

Monday, November 19, 2012

  Actual Average Record
Temperature  
Mean Temperature 60 °F -  
Max Temperature 66 °F 61 °F 71 °F (2015)
Min Temperature 53 °F 46 °F 39 °F (2007)
Degree Days  
Heating Degree Days 6    
Growing Degree Days 10 (Base 50)    
Moisture  
Dew Point 53 °F    
Average Humidity 81    
Maximum Humidity 100    
Minimum Humidity 59    
Precipitation  
Precipitation 0.00 in 0.07 in - ()
Sea Level Pressure  
Sea Level Pressure 29.82 in    
Wind  
Wind Speed 5 mph ()    
Max Wind Speed 8 mph    
Max Gust Speed -    
Visibility 6.3 miles    
Events Thunderstorm    
Averages and records for this station are not official NWS values.
T = Trace of Precipitation, MM = Missing Value Source: Averaged Metar Reports

Daily Weather History Graph

Daily Weather History Graph

Search for Another Location

Airport or City:

Trip Planner

Search our weather history database for the weather conditions in past years. The results will help you decide how hot, cold, wet, or windy it might be!

Date:

Astronomy

Nov. 19, 2012 Rise Set
Actual Time 7:11 AM CET 5:06 PM CET
Civil Twilight 6:43 AM CET 5:35 PM CET
Nautical Twilight 6:10 AM CET 6:07 PM CET
Astronomical Twilight 5:38 AM CET 6:39 PM CET
Moon 12:06 PM CET (11/19) 11:14 PM CET (11/19)
Length of Visible Light 10h 52m
Length of Day
9h 54m
Waxing Crescent, 38% of the Moon is Illuminated
Nov 19
Waxing Crescent
Nov 20
First Quarter
Nov 28
Full
Dec 6
Last Quarter
Dec 13
New

Hourly Weather History & Observations

Time (CET) Temp. Dew Point Humidity Pressure Visibility Wind Dir Wind Speed Gust Speed Precip Events Conditions
12:15 AM 55.4 °F 51.8 °F 88% 29.80 in 6.2 mi NNW 4.6 mph - N/A   Scattered Clouds
12:45 AM 55.4 °F 50.0 °F 82% 29.80 in 6.2 mi NW 5.8 mph - N/A   Scattered Clouds
1:00 AM 55 °F 51 °F 80% 29.82 in 6 mi NW 5.8 mph - -   Partly Cloudy
1:15 AM 55.4 °F 50.0 °F 82% 29.80 in 6.2 mi NW 5.8 mph - N/A   Scattered Clouds
1:45 AM 55.4 °F 50.0 °F 82% 29.80 in 6.2 mi WNW 4.6 mph - N/A   Scattered Clouds
1:55 AM 55.4 °F 50.0 °F 82% 29.80 in 6.2 mi WNW 4.6 mph - N/A   Scattered Clouds
2:15 AM 55.4 °F 50.0 °F 82% 29.80 in 6.2 mi NW 5.8 mph - N/A   Scattered Clouds
2:45 AM 55.4 °F 51.8 °F 88% 29.80 in 6.2 mi WNW 4.6 mph - N/A   Scattered Clouds
2:55 AM 55.4 °F 51.8 °F 88% 29.80 in 6.2 mi WNW 4.6 mph - N/A   Scattered Clouds
3:15 AM 55.4 °F 51.8 °F 88% 29.80 in 6.2 mi WNW 5.8 mph - N/A   Scattered Clouds
3:45 AM 55.4 °F 51.8 °F 88% 29.80 in 6.2 mi NW 5.8 mph - N/A   Scattered Clouds
3:55 AM 55.4 °F 51.8 °F 88% 29.80 in 6.2 mi NW 5.8 mph - N/A   Scattered Clouds
4:00 AM 55 °F 51 °F 83% 29.82 in 6 mi NW 5.8 mph - -   Scattered Clouds
4:15 AM 55.4 °F 51.8 °F 88% 29.80 in 6.2 mi NNW 4.6 mph - N/A   Scattered Clouds
4:45 AM 55.4 °F 51.8 °F 88% 29.80 in 6.2 mi West 8.1 mph - N/A   Scattered Clouds
4:55 AM 55.4 °F 51.8 °F 88% 29.80 in 6.2 mi West 8.1 mph - N/A   Scattered Clouds
5:15 AM 55.4 °F 51.8 °F 88% 29.80 in 6.2 mi West 6.9 mph - N/A   Scattered Clouds
5:45 AM 55.4 °F 51.8 °F 88% 29.80 in 6.2 mi NW 4.6 mph - N/A   Scattered Clouds
5:55 AM 55.4 °F 51.8 °F 88% 29.80 in 6.2 mi NW 4.6 mph - N/A   Scattered Clouds
6:15 AM 55.4 °F 51.8 °F 88% 29.80 in 6.2 mi NW 4.6 mph - N/A   Scattered Clouds
6:45 AM 53.6 °F 48.2 °F 82% 29.80 in 6.2 mi NW 5.8 mph - N/A   Scattered Clouds
6:55 AM 53.6 °F 48.2 °F 82% 29.80 in 6.2 mi NW 5.8 mph - N/A   Scattered Clouds
7:00 AM 53 °F 49 °F 81% 29.82 in 6 mi NW 5.8 mph - -   Partly Cloudy
7:15 AM 53.6 °F 48.2 °F 82% 29.80 in 6.2 mi NNW 5.8 mph - N/A   Scattered Clouds
7:45 AM 53.6 °F 48.2 °F 82% 29.83 in 6.2 mi NW 4.6 mph - N/A   Scattered Clouds
7:55 AM 53.6 °F 48.2 °F 82% 29.83 in 6.2 mi NW 4.6 mph - N/A   Scattered Clouds
8:15 AM 53.6 °F 48.2 °F 82% 29.83 in 6.2 mi NW 4.6 mph - N/A   Scattered Clouds
8:45 AM 53.6 °F 48.2 °F 82% 29.83 in 6.2 mi NW 4.6 mph - N/A   Scattered Clouds
8:55 AM 53.6 °F 48.2 °F 82% 29.83 in 6.2 mi NW 4.6 mph - N/A   Scattered Clouds
9:15 AM 55.4 °F 55.4 °F 100% 29.83 in 6.2 mi WNW 4.6 mph - N/A   Partly Cloudy
9:45 AM 57.2 °F 57.2 °F 100% 29.83 in 6.2 mi NW 4.6 mph - N/A   Partly Cloudy
9:55 AM 57.2 °F 57.2 °F 100% 29.83 in 6.2 mi NW 4.6 mph - N/A   Partly Cloudy
10:00 AM 58 °F 57 °F 95% 29.84 in 7 mi NW 4.6 mph - -   Scattered Clouds
10:15 AM 59.0 °F 59.0 °F 100% 29.83 in 6.2 mi NNW 3.5 mph - N/A   Partly Cloudy
10:45 AM 62.6 °F 59.0 °F 88% 29.83 in 6.2 mi NNW 4.6 mph - N/A   Partly Cloudy
10:55 AM 62.6 °F 59.0 °F 88% 29.83 in 6.2 mi NNW 4.6 mph - N/A   Partly Cloudy
11:15 AM 64.4 °F 59.0 °F 83% 29.83 in 6.2 mi NW 5.8 mph - N/A   Partly Cloudy
11:45 AM 66.2 °F 59.0 °F 78% 29.80 in 6.2 mi NW 5.8 mph - N/A   Partly Cloudy
11:55 AM 66.2 °F 59.0 °F 78% 29.80 in 6.2 mi NW 5.8 mph - N/A   Partly Cloudy
12:15 PM 66.2 °F 57.2 °F 73% 29.80 in 6.2 mi WNW 6.9 mph - N/A   Partly Cloudy
12:45 PM 66.2 °F 57.2 °F 73% 29.80 in 6.2 mi WNW 5.8 mph - N/A   Scattered Clouds
12:55 PM 66.2 °F 57.2 °F 73% 29.80 in 6.2 mi WNW 5.8 mph - N/A   Scattered Clouds
1:00 PM 67 °F 58 °F 64% 29.81 in 9 mi WNW 5.8 mph - -   Partly Cloudy
1:15 PM 66.2 °F 55.4 °F 68% 29.80 in 6.2 mi NNW 6.9 mph - N/A Thunderstorm Thunderstorm
1:45 PM 64.4 °F 55.4 °F 73% 29.80 in 6.2 mi NNW 6.9 mph - N/A Thunderstorm Thunderstorm
1:55 PM 64.4 °F 55.4 °F 73% 29.80 in 6.2 mi NNW 6.9 mph - N/A Thunderstorm Thunderstorm
2:15 PM 64.4 °F 57.2 °F 77% 29.80 in 6.2 mi NW 4.6 mph - N/A   Scattered Clouds
2:45 PM 66.2 °F 57.2 °F 73% 29.80 in 6.2 mi NW 5.8 mph - N/A   Scattered Clouds
2:55 PM 66.2 °F 57.2 °F 73% 29.80 in 6.2 mi NW 5.8 mph - N/A   Scattered Clouds
3:15 PM 66.2 °F 55.4 °F 68% 29.80 in 6.2 mi NW 6.9 mph - N/A   Scattered Clouds
3:45 PM 66.2 °F 55.4 °F 68% 29.80 in 6.2 mi WNW 6.9 mph - N/A   Partly Cloudy
3:55 PM 66.2 °F 55.4 °F 68% 29.80 in 6.2 mi WNW 6.9 mph - N/A   Partly Cloudy
4:00 PM 66 °F 55 °F 59% 29.81 in 7 mi WNW 6.9 mph - -   Partly Cloudy
4:15 PM 64.4 °F 55.4 °F 73% 29.80 in 6.2 mi WNW 4.6 mph - N/A   Partly Cloudy
5:15 PM 62.6 °F 53.6 °F 72% 29.80 in 6.2 mi NW 4.6 mph - N/A   Partly Cloudy
5:45 PM 60.8 °F 53.6 °F 77% 29.83 in 6.2 mi WNW 6.9 mph - N/A   Partly Cloudy
5:55 PM 60.8 °F 53.6 °F 77% 29.83 in 6.2 mi WNW 6.9 mph - N/A   Partly Cloudy
6:15 PM 60.8 °F 53.6 °F 77% 29.83 in 6.2 mi WNW 5.8 mph - N/A   Partly Cloudy
6:45 PM 60.8 °F 53.6 °F 77% 29.83 in 6.2 mi NW 8.1 mph - N/A   Partly Cloudy
6:55 PM 60.8 °F 53.6 °F 77% 29.83 in 6.2 mi NW 8.1 mph - N/A   Partly Cloudy
7:00 PM 60 °F 54 °F 74% 29.84 in 7 mi NW 8.1 mph - -   Partly Cloudy
7:15 PM 59.0 °F 53.6 °F 82% 29.83 in 6.2 mi NW 8.1 mph - N/A   Partly Cloudy
7:45 PM 59.0 °F 53.6 °F 82% 29.83 in 6.2 mi WNW 6.9 mph - N/A   Partly Cloudy
7:55 PM 59.0 °F 53.6 °F 82% 29.83 in 6.2 mi WNW 6.9 mph - N/A   Partly Cloudy
8:15 PM 59.0 °F 53.6 °F 82% 29.83 in 6.2 mi NNW 6.9 mph - N/A   Partly Cloudy
8:45 PM 57.2 °F 53.6 °F 88% 29.83 in 6.2 mi NW 2.3 mph - N/A   Partly Cloudy
8:55 PM 57.2 °F 53.6 °F 88% 29.83 in 6.2 mi NW 2.3 mph - N/A   Partly Cloudy
9:15 PM 57.2 °F 50.0 °F 77% 29.86 in 6.2 mi West 4.6 mph - N/A   Partly Cloudy
9:45 PM 55.4 °F 48.2 °F 77% 29.86 in 6.2 mi NNW 4.6 mph - N/A   Scattered Clouds
9:55 PM 55.4 °F 48.2 °F 77% 29.86 in 6.2 mi NNW 4.6 mph - N/A   Scattered Clouds
10:00 PM 56 °F 48 °F 67% 29.87 in 9 mi NNW 4.6 mph - -   Scattered Clouds
10:15 PM 55.4 °F 48.2 °F 77% 29.86 in 6.2 mi North 6.9 mph - N/A   Scattered Clouds
10:45 PM 55.4 °F 48.2 °F 77% 29.86 in 6.2 mi NW 4.6 mph - N/A   Scattered Clouds
10:55 PM 55.4 °F 48.2 °F 77% 29.86 in 6.2 mi NW 4.6 mph - N/A   Scattered Clouds
11:15 PM 55.4 °F 48.2 °F 77% 29.86 in 6.2 mi NW 3.5 mph - N/A   Scattered Clouds
11:45 PM 55.4 °F 48.2 °F 77% 29.86 in 6.2 mi NNW 5.8 mph - N/A   Scattered Clouds
11:55 PM 55.4 °F 48.2 °F 77% 29.86 in 6.2 mi NNW 5.8 mph - N/A   Scattered Clouds